Cedar Island, NC

11:03 PM EDT on August 23, 2016 (GMT -0400)
Piney Island

Weather History for KNBT - November, 2013

Change the Weather History Date:

Monday, November 25, 2013

  Actual Average (KMRH) Record (KMRH)
Temperature  
Mean Temperature 39 °F -  
Max Temperature 46 °F 65 °F 78 °F (1960)
Min Temperature 33 °F 41 °F 24 °F (1970)
Degree Days  
Heating Degree Days 26    
Moisture  
Dew Point 25 °F    
Average Humidity 58    
Maximum Humidity 83    
Minimum Humidity 42    
Precipitation  
Precipitation 0.00 in - - ()
Sea Level Pressure  
Sea Level Pressure 30.52 in    
Wind  
Wind Speed 11 mph (NNE)    
Max Wind Speed 16 mph    
Max Gust Speed 23 mph    
Averages and records for this station are not official NWS values.
T = Trace of Precipitation, MM = Missing Value Source: NWS Daily Summary

Daily Weather History Graph

Daily Weather History Graph

Search for Another Location

Airport or City:

Trip Planner

Search our weather history database for the weather conditions in past years. The results will help you decide how hot, cold, wet, or windy it might be!

Date:

Astronomy

Nov. 25, 2013 Rise Set
Actual Time 6:50 AM EST 4:55 PM EST
Civil Twilight 6:22 AM EST 5:22 PM EST
Nautical Twilight 5:51 AM EST 5:53 PM EST
Astronomical Twilight 5:21 AM EST 6:24 PM EST
Moon No Moon Rise 12:14 PM EST (11/25)
Length of Visible Light 11h 00m
Length of Day
10h 05m
Waning Gibbous, 51% of the Moon is Illuminated
Nov 25
Waning Gibbous
Nov 25
Last Quarter
Dec 2
New
Dec 9
First Quarter
Dec 17
Full

Hourly Weather History & Observations

Time (EST) Temp. Windchill Dew Point Humidity Pressure Visibility Wind Dir Wind Speed Gust Speed Precip Events Conditions
12:56 AM 33.1 °F 24.4 °F 12.0 °F 42% 30.52 in - North 11.5 mph - N/A   Clear
1:56 AM 33.1 °F 24.4 °F 12.0 °F 42% 30.52 in - North 11.5 mph - N/A   Clear
2:56 AM 33.1 °F 24.9 °F 15.1 °F 48% 30.52 in - North 10.4 mph - N/A   Clear
3:56 AM 33.1 °F 24.4 °F 17.1 °F 52% 30.52 in - North 11.5 mph - N/A   Clear
4:56 AM 33.1 °F 24.4 °F 18.0 °F 54% 30.54 in - North 11.5 mph - N/A   Clear
5:56 AM 33.1 °F 23.4 °F 17.1 °F 52% 30.57 in - NNW 13.8 mph - N/A   Clear
6:56 AM 33.1 °F 24.4 °F 18.0 °F 54% 30.58 in - North 11.5 mph - N/A   Clear
7:56 AM 35.1 °F 25.2 °F 21.0 °F 57% 30.56 in - North 16.1 mph 23.0 mph N/A   Clear
8:56 AM 37.0 °F 28.1 °F 21.9 °F 54% 30.58 in - North 15.0 mph - N/A   Clear
9:56 AM 37.9 °F 30.0 °F 24.1 °F 57% 30.59 in - NNE 12.7 mph - N/A   Clear
10:56 AM 39.0 °F 31.4 °F 26.1 °F 60% 30.58 in - NNE 12.7 mph - N/A   Clear
11:56 AM 41.0 °F 34.7 °F 27.0 °F 57% 30.57 in - NE 10.4 mph - N/A   Clear
12:56 PM 41.0 °F 34.7 °F 26.1 °F 55% 30.55 in - NE 10.4 mph 17.3 mph N/A   Clear
1:56 PM 42.1 °F 37.7 °F 26.1 °F 53% 30.53 in - NNE 6.9 mph - N/A   Clear
2:56 PM 42.1 °F 37.1 °F 23.0 °F 47% 30.51 in - NE 8.1 mph - N/A   Clear
3:56 PM 42.1 °F 37.7 °F 25.0 °F 51% 30.51 in - NE 6.9 mph - N/A   Clear
4:56 PM 39.9 °F 35.8 °F 23.0 °F 51% 30.51 in - NNE 5.8 mph - N/A   Clear
5:56 PM 39.0 °F 35.7 °F 26.1 °F 60% 30.50 in - NE 4.6 mph - N/A   Clear
6:56 PM 41.0 °F 35.8 °F 27.0 °F 57% 30.49 in - ENE 8.1 mph - N/A   Clear
7:56 PM 42.1 °F 36.6 °F 32.0 °F 67% 30.48 in - NE 9.2 mph - N/A   Clear
8:56 PM 43.0 °F 38.8 °F 36.0 °F 76% 30.46 in - NE 6.9 mph - N/A   Clear
9:56 PM 44.1 °F 40.1 °F 37.0 °F 76% 30.44 in - ENE 6.9 mph - N/A   Clear
10:56 PM 45.0 °F 40.1 °F 39.0 °F 80% 30.41 in - ENE 9.2 mph - N/A   Clear
11:56 PM 46.0 °F 41.9 °F 41.0 °F 83% 30.40 in - ENE 8.1 mph - N/A   Clear